| time (UTC) | temp F | wind direction | speed MPH | gust MPH | rain 1hr in | rain 24hr in | rain mn in | humidity % | barometer mb |
| 20260510054839 | 54 | 37 | 15.0 | 17.0 | 0.00 | 0.00 | 0.00 | 80 | 1023.2 |
| 20260510054336 | 54 | 105 | 11.0 | 16.0 | 0.00 | 0.00 | 0.00 | 81 | 1023.2 |
| 20260510053834 | 54 | 359 | 12.0 | 14.0 | 0.00 | 0.00 | 0.00 | 82 | 1023.2 |
| 20260510053331 | 52 | 39 | 9.0 | 10.0 | 0.00 | 0.00 | 0.00 | 83 | 1023.2 |
| 20260510052829 | 52 | 34 | 9.0 | 13.0 | 0.00 | 0.00 | 0.00 | 84 | 1023.2 |
| 20260510052326 | 52 | 22 | 8.0 | 12.0 | 0.00 | 0.00 | 0.00 | 85 | 1023.2 |
| 20260510051824 | 52 | 43 | 10.0 | 12.0 | 0.00 | 0.00 | 0.00 | 84 | 1023.5 |
| 20260510051321 | 52 | 56 | 11.0 | 13.0 | 0.00 | 0.00 | 0.00 | 84 | 1023.5 |
| 20260510050317 | 52 | 14 | 5.0 | 6.0 | 0.00 | 0.00 | 0.00 | 85 | 1023.5 |
| 20260510045814 | 52 | 33 | 8.0 | 9.0 | 0.00 | 0.00 | 0.00 | 85 | 1023.8 |
| 20260510045312 | 52 | 45 | 8.0 | 10.0 | 0.00 | 0.00 | 0.00 | 85 | 1023.8 |
| 20260510044810 | 52 | 19 | 11.0 | 12.0 | 0.00 | 0.00 | 0.00 | 85 | 1023.8 |
| 20260510044308 | 52 | 34 | 8.0 | 12.0 | 0.00 | 0.00 | 0.00 | 85 | 1023.8 |
| 20260510043805 | 52 | 21 | 7.0 | 9.0 | 0.00 | 0.00 | 0.00 | 85 | 1023.8 |
| 20260510043303 | 52 | 4 | 8.0 | 9.0 | 0.00 | 0.00 | 0.00 | 84 | 1023.8 |
| 20260510042800 | 52 | 42 | 7.0 | 9.0 | 0.00 | 0.00 | 0.00 | 84 | 1023.5 |
| 20260510042258 | 52 | 23 | 7.0 | 7.0 | 0.00 | 0.00 | 0.00 | 84 | 1023.5 |
| 20260510041756 | 52 | 60 | 6.0 | 9.0 | 0.00 | 0.00 | 0.00 | 84 | 1023.5 |
| 20260510041253 | 52 | 29 | 6.0 | 6.0 | 0.00 | 0.00 | 0.00 | 84 | 1023.8 |
| 20260510040751 | 52 | 47 | 6.0 | 9.0 | 0.00 | 0.00 | 0.00 | 83 | 1023.8 |
| 20260510040253 | 52 | 65 | 10.0 | 12.0 | 0.00 | 0.00 | 0.00 | 83 | 1023.8 |
| 20260510035244 | 52 | 104 | 5.0 | 6.0 | 0.00 | 0.00 | 0.00 | 82 | 1023.5 |
| 20260510034742 | 52 | 34 | 12.0 | 14.0 | 0.00 | 0.00 | 0.00 | 82 | 1023.5 |
| 20260510034240 | 52 | 50 | 9.0 | 10.0 | 0.00 | 0.00 | 0.00 | 81 | 1023.8 |
| 20260510033738 | 52 | 34 | 7.0 | 9.0 | 0.00 | 0.00 | 0.00 | 81 | 1023.8 |
| 20260510033235 | 52 | 41 | 7.0 | 9.0 | 0.00 | 0.00 | 0.00 | 80 | 1023.8 |
| 20260510032733 | 52 | 25 | 5.0 | 7.0 | 0.00 | 0.00 | 0.00 | 81 | 1023.8 |
| 20260510032230 | 52 | 66 | 7.0 | 9.0 | 0.00 | 0.00 | 0.00 | 80 | 1023.5 |
| 20260510031727 | 52 | 40 | 5.0 | 9.0 | 0.00 | 0.00 | 0.00 | 80 | 1023.8 |
| 20260510030722 | 52 | 65 | 9.0 | 11.0 | 0.00 | 0.00 | 0.00 | 79 | 1023.5 |
| 20260510030220 | 52 | 29 | 7.0 | 9.0 | 0.00 | 0.00 | 0.00 | 78 | 1023.5 |
| 20260510025717 | 52 | 359 | 6.0 | 9.0 | 0.00 | 0.00 | 0.00 | 78 | 1023.5 |
| 20260510025215 | 52 | 64 | 6.0 | 7.0 | 0.00 | 0.00 | 0.00 | 77 | 1023.5 |
| 20260510024210 | 52 | 56 | 5.0 | 7.0 | 0.00 | 0.00 | 0.00 | 76 | 1023.5 |
| 20260510023708 | 52 | 30 | 7.0 | 9.0 | 0.00 | 0.00 | 0.00 | 76 | 1023.5 |
| 20260510023206 | 52 | 54 | 3.0 | 5.0 | 0.00 | 0.00 | 0.00 | 76 | 1023.5 |
| 20260510022703 | 52 | 57 | 7.0 | 11.0 | 0.00 | 0.00 | 0.00 | 76 | 1023.5 |
| 20260510022201 | 52 | 65 | 6.0 | 7.0 | 0.00 | 0.00 | 0.00 | 76 | 1023.5 |
| 20260510021700 | 52 | 66 | 6.0 | 7.0 | 0.00 | 0.00 | 0.00 | 76 | 1023.5 |
| 20260510021156 | 52 | 35 | 7.0 | 8.0 | 0.00 | 0.00 | 0.00 | 76 | 1023.5 |
| 20260510020654 | 52 | 56 | 9.0 | 11.0 | 0.00 | 0.00 | 0.00 | 76 | 1023.5 |
| 20260510020151 | 52 | 74 | 7.0 | 11.0 | 0.00 | 0.00 | 0.00 | 76 | 1023.8 |
| 20260510015649 | 52 | 28 | 6.0 | 7.0 | 0.00 | 0.00 | 0.00 | 76 | 1023.8 |
| 20260510014644 | 52 | 91 | 6.0 | 9.0 | 0.00 | 0.00 | 0.00 | 75 | 1023.8 |
| 20260510014142 | 52 | 51 | 3.0 | 5.0 | 0.00 | 0.00 | 0.00 | 75 | 1023.8 |
| 20260510013639 | 52 | 90 | 6.0 | 9.0 | 0.00 | 0.00 | 0.00 | 75 | 1023.8 |
| 20260510013137 | 52 | 42 | 8.0 | 11.0 | 0.00 | 0.00 | 0.00 | 75 | 1023.8 |
| 20260510012635 | 52 | 57 | 7.0 | 9.0 | 0.00 | 0.00 | 0.00 | 74 | 1023.8 |
| 20260510012133 | 52 | 60 | 4.0 | 6.0 | 0.00 | 0.00 | 0.00 | 75 | 1023.8 |
| 20260510011631 | 52 | 69 | 6.0 | 7.0 | 0.00 | 0.00 | 0.00 | 74 | 1023.8 |
| 20260510011127 | 52 | 63 | 9.0 | 11.0 | 0.00 | 0.00 | 0.00 | 74 | 1024.2 |
| 20260510010625 | 52 | 50 | 7.0 | 9.0 | 0.00 | 0.00 | 0.00 | 75 | 1024.2 |
| 20260510010123 | 52 | 91 | 3.0 | 7.0 | 0.00 | 0.00 | 0.00 | 75 | 1024.2 |
| 20260510005621 | 52 | 89 | 6.0 | 9.0 | 0.00 | 0.00 | 0.00 | 75 | 1024.2 |
| 20260510004616 | 52 | 73 | 4.0 | 6.0 | 0.00 | 0.00 | 0.00 | 76 | 1024.2 |
| 20260510004114 | 52 | 65 | 3.0 | 5.0 | 0.00 | 0.00 | 0.00 | 76 | 1024.2 |
| 20260510003611 | 52 | 90 | 6.0 | 7.0 | 0.00 | 0.00 | 0.00 | 76 | 1024.2 |
| 20260510003109 | 52 | 79 | 4.0 | 7.0 | 0.00 | 0.00 | 0.00 | 76 | 1024.5 |
| 20260510002607 | 52 | 37 | 5.0 | 7.0 | 0.00 | 0.00 | 0.00 | 76 | 1024.5 |
| 20260510002104 | 52 | 91 | 2.0 | 6.0 | 0.00 | 0.00 | 0.00 | 76 | 1024.5 |
| 20260510001602 | 52 | 61 | 4.0 | 8.0 | 0.00 | 0.00 | 0.00 | 76 | 1024.5 |
| 20260510001059 | 52 | 45 | 6.0 | 9.0 | 0.00 | 0.00 | 0.00 | 75 | 1024.9 |
| 20260510000557 | 52 | 74 | 6.0 | 9.0 | 0.00 | 0.00 | 0.00 | 74 | 1024.9 |
| 20260510000055 | 52 | 63 | 3.0 | 5.0 | 0.00 | 0.00 | 0.00 | 75 | 1024.9 |
| 20260509235553 | 52 | 100 | 7.0 | 10.0 | 0.00 | 0.00 | 0.00 | 75 | 1024.9 |
| 20260509235051 | 54 | 80 | 6.0 | 9.0 | 0.00 | 0.00 | 0.00 | 74 | 1024.9 |
| 20260509234549 | 54 | 79 | 4.0 | 6.0 | 0.00 | 0.00 | 0.00 | 74 | 1024.9 |
| 20260509234047 | 54 | 95 | 6.0 | 8.0 | 0.00 | 0.00 | 0.00 | 73 | 1024.9 |
| 20260509233544 | 54 | 46 | 6.0 | 7.0 | 0.00 | 0.00 | 0.00 | 72 | 1024.9 |
| 20260509233042 | 54 | 67 | 6.0 | 10.0 | 0.00 | 0.00 | 0.00 | 71 | 1024.9 |
| 20260509232540 | 54 | 64 | 7.0 | 7.0 | 0.00 | 0.00 | 0.00 | 73 | 1024.9 |
| 20260509232038 | 54 | 71 | 3.0 | 4.0 | 0.00 | 0.00 | 0.00 | 73 | 1024.9 |
| 20260509231535 | 54 | 70 | 6.0 | 9.0 | 0.00 | 0.00 | 0.00 | 72 | 1024.9 |
| 20260509230530 | 54 | 51 | 6.0 | 7.0 | 0.00 | 0.00 | 0.00 | 72 | 1024.9 |
| 20260509230028 | 54 | 35 | 4.0 | 9.0 | 0.00 | 0.00 | 0.00 | 73 | 1024.9 |
| 20260509225525 | 54 | 70 | 3.0 | 4.0 | 0.00 | 0.00 | 0.00 | 73 | 1024.9 |
| 20260509225023 | 54 | 60 | 5.0 | 7.0 | 0.00 | 0.00 | 0.00 | 73 | 1024.9 |
| 20260509224521 | 54 | 67 | 5.0 | 7.0 | 0.00 | 0.00 | 0.00 | 74 | 1024.9 |
| 20260509224018 | 54 | 63 | 4.0 | 6.0 | 0.00 | 0.00 | 0.00 | 74 | 1024.9 |
| 20260509223516 | 54 | 39 | 4.0 | 9.0 | 0.00 | 0.00 | 0.00 | 74 | 1024.9 |
| 20260509222510 | 54 | 60 | 5.0 | 7.0 | 0.00 | 0.00 | 0.00 | 74 | 1024.9 |
| 20260509222008 | 54 | 81 | 2.0 | 4.0 | 0.00 | 0.00 | 0.00 | 74 | 1024.9 |
| 20260509221505 | 54 | 25 | 2.0 | 4.0 | 0.00 | 0.00 | 0.00 | 73 | 1024.9 |
| 20260509221003 | 54 | 65 | 2.0 | 3.0 | 0.00 | 0.00 | 0.00 | 74 | 1024.9 |
| 20260509220500 | 54 | 80 | 7.0 | 11.0 | 0.00 | 0.00 | 0.00 | 73 | 1024.9 |
| 20260509215958 | 54 | 62 | 3.0 | 4.0 | 0.00 | 0.00 | 0.00 | 73 | 1024.9 |
| 20260509215456 | 54 | 77 | 2.0 | 5.0 | 0.00 | 0.00 | 0.00 | 73 | 1024.9 |
| 20260509214953 | 54 | 68 | 3.0 | 4.0 | 0.00 | 0.00 | 0.00 | 73 | 1024.9 |
| 20260509214450 | 54 | 72 | 4.0 | 6.0 | 0.00 | 0.00 | 0.00 | 73 | 1024.9 |
| 20260509213948 | 54 | 38 | 2.0 | 3.0 | 0.00 | 0.00 | 0.00 | 72 | 1024.9 |
| 20260509213445 | 54 | 65 | 3.0 | 6.0 | 0.00 | 0.00 | 0.00 | 72 | 1024.9 |
| 20260509212943 | 54 | 91 | 2.0 | 6.0 | 0.00 | 0.00 | 0.00 | 72 | 1024.9 |
| 20260509212441 | 54 | 40 | 5.0 | 6.0 | 0.00 | 0.00 | 0.00 | 72 | 1024.9 |
| 20260509211939 | 54 | 46 | 3.0 | 4.0 | 0.00 | 0.00 | 0.00 | 72 | 1024.9 |
| 20260509211436 | 55 | 76 | 4.0 | 6.0 | 0.00 | 0.00 | 0.00 | 70 | 1024.9 |
| 20260509210934 | 54 | 89 | 3.0 | 4.0 | 0.00 | 0.00 | 0.00 | 70 | 1024.9 |
| 20260509210431 | 55 | 44 | 4.0 | 4.0 | 0.00 | 0.00 | 0.00 | 70 | 1024.9 |
| 20260509205929 | 55 | 62 | 4.0 | 7.0 | 0.00 | 0.00 | 0.00 | 68 | 1024.9 |
| 20260509205427 | 55 | 52 | 8.0 | 9.0 | 0.00 | 0.00 | 0.00 | 68 | 1024.9 |
| 20260509204925 | 55 | 27 | 6.0 | 10.0 | 0.00 | 0.00 | 0.00 | 68 | 1024.9 |
| 20260509204422 | 55 | 28 | 4.0 | 6.0 | 0.00 | 0.00 | 0.00 | 68 | 1024.9 |
| 20260509203920 | 55 | 81 | 2.0 | 4.0 | 0.00 | 0.00 | 0.00 | 67 | 1024.9 |
| 20260509203418 | 55 | 90 | 3.0 | 6.0 | 0.00 | 0.00 | 0.00 | 66 | 1024.9 |
| 20260509202915 | 55 | 110 | 5.0 | 7.0 | 0.00 | 0.00 | 0.00 | 65 | 1024.9 |
| 20260509202413 | 55 | 35 | 4.0 | 6.0 | 0.00 | 0.00 | 0.00 | 64 | 1024.9 |
| 20260509201911 | 55 | 76 | 5.0 | 7.0 | 0.00 | 0.00 | 0.00 | 64 | 1024.9 |
| 20260509201410 | 55 | 37 | 6.0 | 9.0 | 0.00 | 0.00 | 0.00 | 64 | 1024.9 |
| 20260509201408 | 55 | 37 | 6.0 | 9.0 | 0.00 | 0.00 | 0.00 | 64 | 1024.9 |
| 20260509200906 | 55 | 71 | 4.0 | 7.0 | 0.00 | 0.00 | 0.00 | 64 | 1024.9 |
| 20260509200403 | 55 | 74 | 2.0 | 3.0 | 0.00 | 0.00 | 0.00 | 64 | 1024.5 |
| 20260509195901 | 55 | 71 | 3.0 | 6.0 | 0.00 | 0.00 | 0.00 | 64 | 1024.5 |
| 20260509195359 | 55 | 96 | 2.0 | 3.0 | 0.00 | 0.00 | 0.00 | 64 | 1024.5 |
| 20260509194856 | 55 | 96 | 2.0 | 3.0 | 0.00 | 0.00 | 0.00 | 63 | 1024.5 |
| 20260509194353 | 55 | 91 | 2.0 | 3.0 | 0.00 | 0.00 | 0.00 | 63 | 1024.5 |
| 20260509193851 | 57 | 57 | 1.0 | 2.0 | 0.00 | 0.00 | 0.00 | 61 | 1024.5 |
| 20260509193348 | 57 | 79 | 2.0 | 3.0 | 0.00 | 0.00 | 0.00 | 61 | 1024.5 |
| 20260509192846 | 57 | 55 | 3.0 | 3.0 | 0.00 | 0.00 | 0.00 | 60 | 1024.5 |
| 20260509192343 | 57 | 63 | 3.0 | 4.0 | 0.00 | 0.00 | 0.00 | 59 | 1024.5 |
| 20260509191840 | 57 | 35 | 4.0 | 7.0 | 0.00 | 0.00 | 0.00 | 58 | 1024.5 |
| 20260509191338 | 57 | 64 | 4.0 | 6.0 | 0.00 | 0.00 | 0.00 | 57 | 1024.2 |
| 20260509190836 | 59 | 69 | 6.0 | 9.0 | 0.00 | 0.00 | 0.00 | 56 | 1024.2 |
| 20260509190334 | 59 | 75 | 7.0 | 8.0 | 0.00 | 0.00 | 0.00 | 56 | 1024.2 |
| 20260509185831 | 59 | 38 | 6.0 | 7.0 | 0.00 | 0.00 | 0.00 | 55 | 1024.2 |
| 20260509185328 | 59 | 63 | 5.0 | 7.0 | 0.00 | 0.00 | 0.00 | 55 | 1024.2 |
| 20260509184826 | 59 | 80 | 4.0 | 6.0 | 0.00 | 0.00 | 0.00 | 55 | 1024.2 |
| 20260509184323 | 59 | 21 | 8.0 | 9.0 | 0.00 | 0.00 | 0.00 | 55 | 1024.2 |
| 20260509183822 | 59 | 90 | 7.0 | 9.0 | 0.00 | 0.00 | 0.00 | 55 | 1024.2 |
| 20260509183319 | 59 | 43 | 9.0 | 9.0 | 0.00 | 0.00 | 0.00 | 55 | 1024.2 |
| 20260509182817 | 61 | 57 | 9.0 | 12.0 | 0.00 | 0.00 | 0.00 | 54 | 1024.2 |
| 20260509182314 | 61 | 59 | 9.0 | 11.0 | 0.00 | 0.00 | 0.00 | 54 | 1023.8 |
| 20260509181812 | 61 | 81 | 3.0 | 5.0 | 0.00 | 0.00 | 0.00 | 55 | 1023.8 |
| 20260509181309 | 61 | 46 | 5.0 | 6.0 | 0.00 | 0.00 | 0.00 | 54 | 1023.8 |
| 20260509180807 | 61 | 75 | 6.0 | 7.0 | 0.00 | 0.00 | 0.00 | 53 | 1023.8 |
| 20260509180304 | 61 | 69 | 6.0 | 10.0 | 0.00 | 0.00 | 0.00 | 53 | 1023.8 |
| 20260509175802 | 61 | 28 | 10.0 | 16.0 | 0.00 | 0.00 | 0.00 | 53 | 1023.8 |
| 20260509175300 | 61 | 89 | 8.0 | 12.0 | 0.00 | 0.00 | 0.00 | 52 | 1023.8 |
| 20260509174758 | 63 | 57 | 9.0 | 12.0 | 0.00 | 0.00 | 0.00 | 52 | 1023.8 |
| 20260509173753 | 63 | 62 | 12.0 | 15.0 | 0.00 | 0.00 | 0.00 | 52 | 1023.8 |
| 20260509173250 | 63 | 64 | 9.0 | 11.0 | 0.00 | 0.00 | 0.00 | 53 | 1023.8 |
| 20260509172748 | 63 | 75 | 6.0 | 7.0 | 0.00 | 0.00 | 0.00 | 52 | 1024.2 |
| 20260509172246 | 63 | 67 | 11.0 | 12.0 | 0.00 | 0.00 | 0.00 | 52 | 1024.2 |
| 20260509171743 | 63 | 65 | 11.0 | 13.0 | 0.00 | 0.00 | 0.00 | 52 | 1024.2 |
| 20260509171241 | 63 | 80 | 7.0 | 9.0 | 0.00 | 0.00 | 0.00 | 53 | 1024.2 |
| 20260509170237 | 64 | 60 | 10.0 | 11.0 | 0.00 | 0.00 | 0.00 | 51 | 1024.2 |
| 20260509165734 | 64 | 45 | 8.0 | 10.0 | 0.00 | 0.00 | 0.00 | 52 | 1024.2 |
| 20260509165232 | 64 | 27 | 7.0 | 9.0 | 0.00 | 0.00 | 0.00 | 52 | 1023.8 |
| 20260509164729 | 64 | 38 | 7.0 | 9.0 | 0.00 | 0.00 | 0.00 | 52 | 1024.2 |
| 20260509164227 | 64 | 54 | 12.0 | 15.0 | 0.00 | 0.00 | 0.00 | 53 | 1023.8 |
| 20260509163724 | 64 | 39 | 7.0 | 10.0 | 0.00 | 0.00 | 0.00 | 53 | 1023.8 |
| 20260509163222 | 64 | 34 | 9.0 | 11.0 | 0.00 | 0.00 | 0.00 | 53 | 1023.8 |
| 20260509162720 | 64 | 47 | 6.0 | 8.0 | 0.00 | 0.00 | 0.00 | 53 | 1023.8 |
| 20260509162218 | 64 | 51 | 8.0 | 11.0 | 0.00 | 0.00 | 0.00 | 53 | 1023.8 |
| 20260509161715 | 64 | 26 | 15.0 | 19.0 | 0.00 | 0.00 | 0.00 | 53 | 1023.8 |
| 20260509161212 | 64 | 44 | 6.0 | 10.0 | 0.00 | 0.00 | 0.00 | 52 | 1023.8 |
| 20260509160710 | 66 | 40 | 11.0 | 14.0 | 0.00 | 0.00 | 0.00 | 51 | 1024.2 |
| 20260509160208 | 68 | 56 | 6.0 | 8.0 | 0.00 | 0.00 | 0.00 | 50 | 1023.8 |
| 20260509155203 | 66 | 33 | 8.0 | 11.0 | 0.00 | 0.00 | 0.00 | 51 | 1023.8 |
| 20260509154700 | 66 | 27 | 8.0 | 15.0 | 0.00 | 0.00 | 0.00 | 52 | 1023.8 |
| 20260509154158 | 66 | 67 | 8.0 | 14.0 | 0.00 | 0.00 | 0.00 | 52 | 1024.2 |
| 20260509153153 | 66 | 39 | 9.0 | 12.0 | 0.00 | 0.00 | 0.00 | 51 | 1024.2 |
| 20260509152148 | 66 | 66 | 7.0 | 9.0 | 0.00 | 0.00 | 0.00 | 51 | 1024.2 |
| 20260509151646 | 66 | 24 | 9.0 | 10.0 | 0.00 | 0.00 | 0.00 | 51 | 1024.2 |
| 20260509151144 | 66 | 31 | 13.0 | 17.0 | 0.00 | 0.00 | 0.00 | 50 | 1024.2 |
| 20260509150642 | 66 | 24 | 7.0 | 7.0 | 0.00 | 0.00 | 0.00 | 51 | 1024.2 |
| 20260509150139 | 68 | 46 | 7.0 | 9.0 | 0.00 | 0.00 | 0.00 | 51 | 1024.2 |
| 20260509145637 | 68 | 101 | 7.0 | 11.0 | 0.00 | 0.00 | 0.00 | 50 | 1024.2 |
| 20260509145135 | 68 | 41 | 9.0 | 13.0 | 0.00 | 0.00 | 0.00 | 50 | 1024.2 |
| 20260509144632 | 70 | 93 | 6.0 | 11.0 | 0.00 | 0.00 | 0.00 | 50 | 1024.2 |
| 20260509144130 | 70 | 76 | 6.0 | 6.0 | 0.00 | 0.00 | 0.00 | 49 | 1024.2 |
| 20260509143628 | 70 | 73 | 9.0 | 10.0 | 0.00 | 0.00 | 0.00 | 49 | 1023.8 |
| 20260509143125 | 70 | 35 | 11.0 | 15.0 | 0.00 | 0.00 | 0.00 | 49 | 1023.8 |
| 20260509142622 | 68 | 45 | 5.0 | 7.0 | 0.00 | 0.00 | 0.00 | 50 | 1023.8 |
| 20260509142119 | 68 | 85 | 5.0 | 7.0 | 0.00 | 0.00 | 0.00 | 50 | 1023.8 |
| 20260509141617 | 68 | 82 | 4.0 | 7.0 | 0.00 | 0.00 | 0.00 | 50 | 1023.8 |
| 20260509141114 | 68 | 86 | 8.0 | 11.0 | 0.00 | 0.00 | 0.00 | 47 | 1023.8 |
| 20260509140612 | 70 | 42 | 9.0 | 12.0 | 0.00 | 0.00 | 0.00 | 46 | 1023.8 |
| 20260509135607 | 68 | 96 | 6.0 | 7.0 | 0.00 | 0.00 | 0.00 | 48 | 1023.8 |
| 20260509135105 | 68 | 33 | 6.0 | 8.0 | 0.00 | 0.00 | 0.00 | 48 | 1024.2 |
| 20260509134100 | 70 | 84 | 6.0 | 7.0 | 0.00 | 0.00 | 0.00 | 44 | 1024.2 |
| 20260509133558 | 72 | 99 | 4.0 | 5.0 | 0.00 | 0.00 | 0.00 | 45 | 1024.2 |
| 20260509132553 | 70 | 139 | 6.0 | 7.0 | 0.00 | 0.00 | 0.00 | 45 | 1024.2 |
| 20260509131549 | 68 | 90 | 8.0 | 11.0 | 0.00 | 0.00 | 0.00 | 46 | 1024.2 |
| 20260509131046 | 70 | 29 | 6.0 | 10.0 | 0.00 | 0.00 | 0.00 | 45 | 1024.2 |
| 20260509130544 | 70 | 65 | 4.0 | 5.0 | 0.00 | 0.00 | 0.00 | 44 | 1024.2 |
| 20260509130042 | 70 | 90 | 2.0 | 6.0 | 0.00 | 0.00 | 0.00 | 46 | 1024.2 |
| 20260509125540 | 70 | 90 | 4.0 | 5.0 | 0.00 | 0.00 | 0.00 | 46 | 1024.2 |
| 20260509125037 | 68 | 74 | 5.0 | 8.0 | 0.00 | 0.00 | 0.00 | 47 | 1024.5 |
| 20260509124534 | 70 | 41 | 12.0 | 16.0 | 0.00 | 0.00 | 0.00 | 45 | 1024.5 |
| 20260509124032 | 72 | 90 | 5.0 | 11.0 | 0.00 | 0.00 | 0.00 | 44 | 1024.5 |
| 20260509123530 | 72 | 133 | 4.0 | 6.0 | 0.00 | 0.00 | 0.00 | 45 | 1024.5 |
| 20260509123027 | 70 | 66 | 3.0 | 6.0 | 0.00 | 0.00 | 0.00 | 45 | 1024.5 |
| 20260509122524 | 70 | 99 | 4.0 | 6.0 | 0.00 | 0.00 | 0.00 | 46 | 1024.5 |
| 20260509121518 | 70 | 57 | 6.0 | 6.0 | 0.00 | 0.00 | 0.00 | 47 | 1024.9 |
| 20260509121015 | 68 | 85 | 5.0 | 6.0 | 0.00 | 0.00 | 0.00 | 46 | 1024.9 |
| 20260509120513 | 68 | 76 | 6.0 | 7.0 | 0.00 | 0.00 | 0.00 | 48 | 1024.9 |
| 20260509120011 | 70 | 61 | 5.0 | 7.0 | 0.00 | 0.00 | 0.00 | 48 | 1024.9 |
| 20260509115509 | 70 | 72 | 4.0 | 6.0 | 0.00 | 0.00 | 0.00 | 47 | 1024.9 |
| 20260509115006 | 70 | 78 | 6.0 | 7.0 | 0.00 | 0.00 | 0.00 | 48 | 1024.9 |
| 20260509114001 | 70 | 70 | 7.0 | 8.0 | 0.00 | 0.00 | 0.00 | 46 | 1024.9 |
| 20260509113459 | 70 | 82 | 9.0 | 11.0 | 0.00 | 0.00 | 0.00 | 47 | 1024.9 |
| 20260509112956 | 70 | 91 | 7.0 | 9.0 | 0.00 | 0.00 | 0.00 | 47 | 1025.2 |
| 20260509112454 | 70 | 74 | 6.0 | 7.0 | 0.00 | 0.00 | 0.00 | 49 | 1025.2 |
| 20260509111952 | 70 | 93 | 9.0 | 11.0 | 0.00 | 0.00 | 0.00 | 48 | 1025.2 |
| 20260509110946 | 70 | 44 | 6.0 | 9.0 | 0.00 | 0.00 | 0.00 | 48 | 1025.2 |
| 20260509110444 | 68 | 26 | 9.0 | 12.0 | 0.00 | 0.00 | 0.00 | 48 | 1025.2 |
| 20260509105942 | 68 | 34 | 9.0 | 12.0 | 0.00 | 0.00 | 0.00 | 49 | 1025.6 |
| 20260509105439 | 68 | 87 | 6.0 | 7.0 | 0.00 | 0.00 | 0.00 | 48 | 1025.6 |
| 20260509104936 | 68 | 101 | 6.0 | 7.0 | 0.00 | 0.00 | 0.00 | 47 | 1025.6 |
| 20260509104434 | 68 | 107 | 9.0 | 13.0 | 0.00 | 0.00 | 0.00 | 48 | 1025.6 |
| 20260509103931 | 68 | 93 | 6.0 | 7.0 | 0.00 | 0.00 | 0.00 | 48 | 1025.6 |
| 20260509103429 | 68 | 100 | 4.0 | 6.0 | 0.00 | 0.00 | 0.00 | 48 | 1025.6 |
| 20260509102927 | 70 | 114 | 6.0 | 9.0 | 0.00 | 0.00 | 0.00 | 49 | 1025.6 |
| 20260509101922 | 68 | 65 | 6.0 | 9.0 | 0.00 | 0.00 | 0.00 | 48 | 1025.9 |
| 20260509101420 | 68 | 109 | 9.0 | 14.0 | 0.00 | 0.00 | 0.00 | 47 | 1025.6 |
| 20260509100917 | 68 | 157 | 9.0 | 11.0 | 0.00 | 0.00 | 0.00 | 48 | 1025.6 |
| 20260509100414 | 68 | 75 | 10.0 | 14.0 | 0.00 | 0.00 | 0.00 | 48 | 1025.9 |
| 20260509095912 | 68 | 35 | 9.0 | 12.0 | 0.00 | 0.00 | 0.00 | 47 | 1025.6 |
| 20260509094907 | 68 | 32 | 6.0 | 8.0 | 0.00 | 0.00 | 0.00 | 48 | 1025.6 |
| 20260509094404 | 68 | 43 | 6.0 | 9.0 | 0.00 | 0.00 | 0.00 | 48 | 1025.6 |
| 20260509093903 | 68 | 73 | 6.0 | 8.0 | 0.00 | 0.00 | 0.00 | 47 | 1025.6 |
| 20260509093400 | 68 | 95 | 7.0 | 9.0 | 0.00 | 0.00 | 0.00 | 47 | 1025.6 |
| 20260509092857 | 68 | 79 | 3.0 | 5.0 | 0.00 | 0.00 | 0.00 | 47 | 1025.6 |
| 20260509092355 | 66 | 98 | 7.0 | 9.0 | 0.00 | 0.00 | 0.00 | 48 | 1025.6 |
| 20260509091852 | 66 | 24 | 11.0 | 12.0 | 0.00 | 0.00 | 0.00 | 49 | 1025.6 |
| 20260509091350 | 66 | 77 | 9.0 | 11.0 | 0.00 | 0.00 | 0.00 | 48 | 1025.9 |
| 20260509090848 | 66 | 59 | 6.0 | 9.0 | 0.00 | 0.00 | 0.00 | 48 | 1025.6 |
| 20260509090346 | 66 | 107 | 11.0 | 13.0 | 0.00 | 0.00 | 0.00 | 48 | 1025.6 |
| 20260509085844 | 66 | 69 | 7.0 | 9.0 | 0.00 | 0.00 | 0.00 | 49 | 1025.9 |
| 20260509085341 | 66 | 79 | 3.0 | 5.0 | 0.00 | 0.00 | 0.00 | 49 | 1025.6 |
| 20260509084839 | 66 | 99 | 7.0 | 8.0 | 0.00 | 0.00 | 0.00 | 49 | 1025.6 |
| 20260509084337 | 64 | 59 | 7.0 | 8.0 | 0.00 | 0.00 | 0.00 | 49 | 1025.6 |
| 20260509083835 | 64 | 98 | 7.0 | 7.0 | 0.00 | 0.00 | 0.00 | 49 | 1025.9 |
| 20260509083331 | 64 | 83 | 11.0 | 15.0 | 0.00 | 0.00 | 0.00 | 50 | 1025.9 |
| 20260509082829 | 64 | 89 | 5.0 | 6.0 | 0.00 | 0.00 | 0.00 | 52 | 1025.9 |
| 20260509081825 | 64 | 65 | 5.0 | 9.0 | 0.00 | 0.00 | 0.00 | 53 | 1025.9 |
| 20260509081322 | 63 | 71 | 11.0 | 14.0 | 0.00 | 0.00 | 0.00 | 53 | 1025.9 |
| 20260509080820 | 64 | 56 | 7.0 | 8.0 | 0.00 | 0.00 | 0.00 | 55 | 1025.9 |
| 20260509080317 | 64 | 57 | 2.0 | 3.0 | 0.00 | 0.00 | 0.00 | 59 | 1025.9 |
| 20260509075815 | 63 | 65 | 9.0 | 10.0 | 0.00 | 0.00 | 0.00 | 59 | 1025.9 |
| 20260509075313 | 63 | 75 | 6.0 | 8.0 | 0.00 | 0.00 | 0.00 | 61 | 1025.9 |
| 20260509074811 | 63 | 98 | 4.0 | 6.0 | 0.00 | 0.00 | 0.00 | 61 | 1025.9 |
| 20260509073806 | 61 | 52 | 3.0 | 3.0 | 0.00 | 0.00 | 0.00 | 65 | 1025.9 |
| 20260509073303 | 61 | 38 | 4.0 | 6.0 | 0.00 | 0.00 | 0.00 | 65 | 1025.9 |
| 20260509072800 | 61 | 15 | 3.0 | 4.0 | 0.00 | 0.00 | 0.00 | 66 | 1025.9 |
| 20260509072258 | 59 | 65 | 7.0 | 9.0 | 0.00 | 0.00 | 0.00 | 65 | 1025.9 |
| 20260509071755 | 59 | 353 | 6.0 | 7.0 | 0.00 | 0.00 | 0.00 | 65 | 1025.9 |
| 20260509071252 | 59 | 26 | 7.0 | 9.0 | 0.00 | 0.00 | 0.00 | 66 | 1025.9 |
| 20260509070750 | 59 | 74 | 3.0 | 5.0 | 0.00 | 0.00 | 0.00 | 68 | 1025.9 |
| 20260509070247 | 59 | 57 | 2.0 | 2.0 | 0.00 | 0.00 | 0.00 | 68 | 1025.9 |
| 20260509065745 | 57 | 87 | 3.0 | 4.0 | 0.00 | 0.00 | 0.00 | 68 | 1026.2 |
| 20260509064739 | 57 | 85 | 2.0 | 4.0 | 0.00 | 0.00 | 0.00 | 70 | 1026.2 |
| 20260509064237 | 55 | 97 | 4.0 | 6.0 | 0.00 | 0.00 | 0.00 | 71 | 1026.2 |
| 20260509063232 | 55 | 47 | 2.0 | 3.0 | 0.00 | 0.00 | 0.00 | 72 | 1026.2 |
| 20260509062729 | 55 | 62 | 2.0 | 3.0 | 0.00 | 0.00 | 0.00 | 73 | 1026.2 |
| 20260509062227 | 55 | 16 | 4.0 | 6.0 | 0.00 | 0.00 | 0.00 | 73 | 1026.2 |
| 20260509061724 | 54 | 55 | 1.0 | 1.0 | 0.00 | 0.00 | 0.00 | 75 | 1026.2 |
| 20260509061221 | 54 | 89 | 4.0 | 5.0 | 0.00 | 0.00 | 0.00 | 75 | 1026.2 |
| 20260509060719 | 52 | 97 | 4.0 | 5.0 | 0.00 | 0.00 | 0.00 | 76 | 1026.2 |
| 20260509060217 | 52 | 86 | 2.0 | 3.0 | 0.00 | 0.00 | 0.00 | 76 | 1026.2 |
| 20260509055714 | 52 | 82 | 1.0 | 1.0 | 0.00 | 0.00 | 0.00 | 76 | 1026.2 |
| 20260509055212 | 52 | 88 | 1.0 | 2.0 | 0.00 | 0.00 | 0.00 | 76 | 1026.2 |